GW5701 Weather Reports


time (UTC)temp
F
wind
direction
speed
knots
gust
knots
rain 1hr
in
rain 24hr
in
rain mn
in
humidity
%
barometer
mb
20260508002048 59 299 2.6 7.0 0.00 0.00 0.00 42 1010.9
20260508000048 60 291 3.5 7.8 0.00 0.00 0.00 43 1010.4
20260507235048 60 304 3.5 7.0 0.00 0.00 0.00 42 1010.3
20260507234047 61 309 2.6 6.1 0.00 0.00 0.00 43 1010.2
20260507233047 62 311 3.5 6.1 0.00 0.00 0.00 41 1010.0
20260507232049 64 266 2.6 5.2 0.00 0.00 0.00 65 1009.8
20260507231047 65 254 1.7 7.8 0.00 0.00 0.00 63 1009.5
20260507230048 64 194 2.6 7.0 0.00 0.00 0.00 63 1009.4
20260507225047 65 245 2.6 5.2 0.00 0.00 0.00 61 1009.3
20260507224048 66 234 1.7 6.1 0.00 0.00 0.00 61 1009.1
20260507223047 64 290 2.6 4.3 0.00 0.00 0.00 62 1009.1
20260507222048 64 219 2.6 8.7 0.00 0.00 0.00 62 1008.9
20260507221047 67 167 2.6 6.1 0.00 0.00 0.00 55 1008.9
20260507220047 68 249 1.7 5.2 0.00 0.00 0.00 56 1008.7
20260507215049 66 240 1.7 6.1 0.00 0.00 0.00 59 1008.7
20260507214048 66 270 2.6 7.0 0.00 0.00 0.00 58 1008.7
20260507213048 66 260 3.5 7.8 0.00 0.00 0.00 57 1008.8
20260507212047 67 258 1.7 7.8 0.00 0.00 0.00 56 1008.7
20260507211047 67 236 2.6 7.8 0.00 0.00 0.00 55 1008.6
20260507210047 67 176 3.5 9.6 0.00 0.00 0.00 54 1008.6
20260507205047 67 218 3.5 7.0 0.00 0.00 0.00 55 1008.6
20260507204048 66 183 4.3 8.7 0.00 0.00 0.00 56 1008.6
20260507203047 67 234 2.6 6.1 0.00 0.00 0.00 55 1008.6
20260507202048 66 233 3.5 7.0 0.00 0.00 0.00 59 1008.7
20260507201049 68 230 0.9 8.7 0.00 0.00 0.00 51 1008.8
20260507200048 66 186 5.2 9.6 0.00 0.00 0.00 58 1009.0
20260507195047 65 210 3.5 7.8 0.00 0.00 0.00 56 1009.1
20260507194048 65 195 4.3 8.7 0.00 0.00 0.00 57 1009.1
20260507193047 64 158 4.3 8.7 0.00 0.00 0.00 59 1009.2
20260507192047 62 150 4.3 7.8 0.00 0.00 0.00 60 1009.4
20260507191047 62 167 2.6 6.1 0.00 0.00 0.00 61 1009.5
20260507190047 63 162 3.5 7.8 0.00 0.00 0.00 61 1009.7
20260507185047 62 191 1.7 7.0 0.00 0.00 0.00 64 1009.7
20260507184047 61 154 4.3 8.7 0.00 0.00 0.00 63 1009.7
20260507183047 62 212 2.6 8.7 0.00 0.00 0.00 58 1009.7
20260507182047 63 0.0 7.8 0.00 0.00 0.00 59 1009.7
20260507181047 64 232 1.7 3.5 0.00 0.00 0.00 56 1009.9
20260507180048 61 283 1.7 5.2 0.00 0.00 0.00 58 1010.1
20260507175048 60 0.0 3.5 0.00 0.00 0.00 62 1010.3
20260507174047 60 90 1.7 3.5 0.00 0.00 0.00 59 1010.4
20260507173047 60 108 0.9 4.3 0.00 0.00 0.00 63 1010.7
20260507172048 61 142 1.7 6.1 0.00 0.00 0.00 60 1010.7
20260507171047 60 9 0.9 3.5 0.00 0.00 0.00 62 1011.0
20260507170051 60 26 1.7 3.5 0.00 0.00 0.00 58 1011.0
20260507165047 62 356 0.0 5.2 0.00 0.00 0.00 59 1011.1
20260507164048 59 26 2.6 6.1 0.00 0.00 0.00 61 1011.3
20260507163047 60 50 3.5 6.1 0.00 0.00 0.00 62 1011.4
20260507162048 60 116 2.6 6.1 0.00 0.00 0.00 59 1011.5
20260507161050 58 0.0 5.2 0.00 0.00 0.00 67 1011.6
20260507160047 57 47 2.6 6.1 0.00 0.00 0.00 67 1011.8
20260507155047 58 35 2.6 5.2 0.00 0.00 0.00 66 1012.1
20260507154048 56 52 3.5 6.1 0.00 0.00 0.00 69 1012.2
20260507153047 56 36 2.6 6.1 0.00 0.00 0.00 68 1012.1
20260507152049 56 47 4.3 9.6 0.00 0.00 0.00 71 1012.2
20260507151047 55 37 3.5 7.8 0.00 0.00 0.00 73 1012.3
20260507150048 54 41 1.7 4.3 0.00 0.00 0.00 76 1012.3
20260507145047 53 17 2.6 8.7 0.00 0.00 0.00 77 1012.5
20260507144047 53 24 3.5 7.0 0.00 0.00 0.00 79 1012.5
20260507143048 52 34 3.5 7.0 0.00 0.00 0.00 79 1012.7
20260507142047 52 35 2.6 9.6 0.00 0.00 0.00 80 1012.8
20260507141048 52 60 3.5 9.6 0.00 0.00 0.00 82 1013.0
20260507140048 52 27 2.6 9.6 0.00 0.00 0.00 82 1013.0
20260507135048 52 54 3.5 8.7 0.00 0.00 0.00 82 1013.1
20260507134047 52 40 3.5 7.8 0.00 0.00 0.00 83 1013.0
20260507133047 52 53 3.5 8.7 0.00 0.00 0.00 83 1013.0
20260507132047 52 38 3.5 7.0 0.00 0.00 0.00 83 1013.2
20260507131049 52 9 2.6 6.1 0.00 0.00 0.00 84 1013.1
20260507130048 52 27 2.6 4.3 0.00 0.00 0.00 84 1013.3
20260507125048 51 34 1.7 5.2 0.00 0.00 0.00 86 1013.4
20260507124047 51 50 1.7 6.1 0.00 0.00 0.00 86 1013.3
20260507123048 51 48 1.7 4.3 0.00 0.00 0.00 86 1013.3
20260507122047 51 43 2.6 5.2 0.00 0.00 0.00 86 1013.0
20260507121047 51 53 2.6 6.1 0.00 0.00 0.00 85 1012.9
20260507120048 51 43 2.6 7.8 0.00 0.00 0.00 84 1012.8
20260507115049 51 33 1.7 5.2 0.00 0.00 0.00 85 1012.7
20260507114047 51 14 1.7 6.1 0.00 0.00 0.00 85 1012.8
20260507113047 51 45 2.6 7.8 0.00 0.00 0.00 84 1012.5
20260507112047 51 46 2.6 5.2 0.00 0.00 0.00 85 1012.5
20260507111047 51 33 1.7 3.5 0.00 0.00 0.00 86 1012.6
20260507110047 51 17 1.7 6.1 0.00 0.00 0.00 86 1012.3
20260507105048 51 22 2.6 5.2 0.00 0.00 0.00 85 1012.1
20260507104049 51 34 1.7 6.1 0.00 0.00 0.00 85 1012.2
20260507103049 51 44 2.6 7.0 0.00 0.00 0.00 85 1011.9
20260507102047 51 46 2.6 6.1 0.00 0.00 0.00 86 1012.2
20260507101047 51 49 4.3 8.7 0.00 0.00 0.00 86 1012.2
20260507100047 51 29 2.6 6.1 0.00 0.00 0.00 87 1012.3
20260507095047 51 49 2.6 7.0 0.00 0.00 0.00 86 1012.1
20260507094048 51 34 3.5 7.0 0.00 0.00 0.00 87 1012.0
20260507093047 51 42 2.6 8.7 0.00 0.00 0.00 87 1011.9
20260507092048 51 41 3.5 8.7 0.00 0.00 0.00 87 1011.9
20260507091047 51 53 4.3 8.7 0.00 0.00 0.00 87 1011.8
20260507090048 51 48 2.6 7.0 0.00 0.00 0.00 88 1011.8
20260507085047 51 37 2.6 7.0 0.00 0.00 0.00 89 1011.9
20260507084047 51 43 4.3 7.0 0.00 0.00 0.00 89 1011.6
20260507083048 52 49 4.3 9.6 0.00 0.00 0.00 90 1011.4
20260507082047 52 42 4.3 9.6 0.00 0.00 0.00 90 1011.7
20260507081048 52 36 5.2 8.7 0.00 0.00 0.00 90 1011.7
20260507080048 52 56 3.5 7.8 0.00 0.00 0.00 91 1011.9
20260507075047 52 46 4.3 8.7 0.00 0.00 0.00 91 1011.7
20260507074052 53 46 5.2 7.8 0.00 0.00 0.00 92 1011.7
20260507073047 53 44 3.5 8.7 0.00 0.00 0.00 92 1011.8
20260507072047 53 37 5.2 9.6 0.00 0.00 0.00 92 1011.5
20260507071048 54 34 5.2 13.9 0.00 0.00 0.00 92 1011.2
20260507070048 54 32 3.5 11.3 0.00 0.00 0.00 93 1011.2
20260507065048 54 41 3.5 10.4 0.00 0.00 0.00 94 1011.2
20260507064047 54 51 5.2 8.7 0.00 0.00 0.00 94 1011.1
20260507063047 55 9 3.5 8.7 0.00 0.00 0.00 94 1011.6
20260507062048 55 42 3.5 8.7 0.00 0.00 0.00 94 1011.4
20260507061047 55 49 4.3 9.6 0.00 0.00 0.00 94 1011.2
20260507060047 55 26 3.5 7.8 0.00 0.00 0.00 95 1011.3
20260507055048 56 38 1.7 6.1 0.00 0.00 0.00 95 1011.6
20260507054048 56 42 4.3 8.7 0.00 0.00 0.00 94 1011.5
20260507053047 56 51 3.5 6.1 0.00 0.00 0.00 95 1011.8
20260507052047 56 45 3.5 8.7 0.00 0.00 0.00 95 1011.3
20260507051047 56 332 1.7 6.1 0.00 0.00 0.00 96 1011.5
20260507050047 57 14 1.7 8.7 0.00 0.00 0.00 96 1011.1
20260507045047 58 18 2.6 4.3 0.00 0.00 0.00 97 1010.8
20260507044048 58 314 0.9 5.2 0.00 0.00 0.00 97 1010.8
20260507043050 59 345 1.7 4.3 0.00 0.00 0.00 96 1010.5
20260507042047 59 172 1.7 8.7 0.00 0.00 0.00 96 1009.7
20260507041048 59 104 1.7 6.1 0.00 0.00 0.00 96 1010.0
20260507040048 59 108 1.7 6.1 0.00 0.00 0.00 96 1010.8
20260507035048 60 26 0.0 2.6 0.00 0.00 0.14 96 1011.3
20260507034047 60 116 0.9 3.5 0.00 0.00 0.14 95 1011.3
20260507033047 60 348 0.9 2.6 0.00 0.00 0.14 95 1011.5
20260507032048 60 343 0.9 2.6 0.00 0.00 0.14 95 1011.3
20260507031051 60 54 0.9 2.6 0.00 0.00 0.14 95 1010.8
20260507030047 60 296 0.9 2.6 0.00 0.00 0.14 96 1011.0
20260507025047 60 13 0.9 1.7 0.00 0.00 0.14 96 1010.8
20260507024047 61 111 0.9 3.5 0.00 0.00 0.14 95 1011.1
20260507023048 61 45 0.9 1.7 0.00 0.00 0.14 96 1010.8
20260507022047 61 309 1.7 2.6 0.00 0.00 0.14 95 1010.7
20260507021047 61 216 0.9 2.6 0.00 0.00 0.14 95 1010.1
20260507020048 62 297 0.9 2.6 0.00 0.00 0.14 95 1010.4
20260507015046 62 321 0.9 3.5 0.00 0.00 0.14 96 1010.4
20260507014048 62 27 1.7 2.6 0.00 0.00 0.14 96 1010.3
20260507013048 62 295 0.9 2.6 0.00 0.00 0.14 95 1010.1
20260507012050 63 46 1.7 4.3 0.00 0.00 0.14 95 1009.7
20260507011048 63 27 0.9 4.3 0.00 0.00 0.14 94 1009.8
20260507010047 63 68 2.6 7.0 0.00 0.00 0.14 93 1009.9
20260507005048 63 45 0.9 4.3 0.00 0.00 0.14 93 1010.4
20260507004048 64 156 1.7 5.2 0.00 0.00 0.14 94 1010.4
20260507003048 64 44 0.9 3.5 0.00 0.00 0.14 94 1010.3